GFSWCAN_prec_precacc_171.txt.gz
Total_Precipitation_Accumulation
1.83 1.66 1.60 1.31 1.50 1.82 1.22 1.24 1.16 1.02 0.94 0.92 0.95 0.79 0.68 0.92 1.60 2.31 2.24 1.66 3.80 2.51 0.61 0.39 0.26 0.15 0.14 0.47 0.79 0.59 0.87 0.82 0.84 0.79 0.60 0.44 0.31 0.23 0.26 0.51 0.88 0.72 0.69 0.68 0.77 0.85 0.51 0.10 0.23 0.76 1.40 0.76 0.68 0.63
2.17 1.80 1.58 1.38 1.38 1.65 1.21 1.27 1.21 1.00 0.84 0.79 0.90 0.82 0.84 1.07 1.72 2.18 2.34 1.72 2.88 3.30 1.30 0.47 0.37 0.15 0.10 0.19 0.59 0.78 0.68 0.54 0.41 0.59 0.52 0.44 0.38 0.36 0.34 0.55 0.84 0.94 0.51 0.68 0.49 0.59 0.42 0.28 0.32 0.27 0.18 0.16 0.12 0.14
2.20 1.92 1.91 1.42 1.43 1.56 1.33 1.35 1.20 1.05 0.94 0.91 0.96 1.00 1.01 1.33 1.89 2.30 2.21 2.01 3.91 4.17 1.66 0.65 0.49 0.27 0.12 0.16 0.38 0.64 0.43 0.34 0.44 0.69 0.75 0.76 0.61 0.49 0.49 0.51 0.75 0.95 0.61 0.98 0.78 0.52 0.29 0.34 0.33 0.14 0.11 0.10 0.09 0.19
2.25 1.93 2.09 1.57 1.57 1.45 1.21 1.26 1.09 0.93 0.96 1.14 1.25 1.16 1.19 1.68 2.15 2.50 2.35 2.10 2.87 2.90 2.23 0.80 0.26 0.31 0.20 0.12 0.31 0.30 0.31 0.38 0.54 0.78 0.88 0.82 0.54 0.34 0.32 0.35 0.49 0.55 0.90 1.35 1.20 0.86 0.55 0.37 0.37 0.34 0.23 0.24 0.17 0.06
1.85 1.88 1.90 1.60 1.71 1.39 1.18 1.18 1.10 0.97 1.05 1.23 1.56 1.30 1.52 1.88 2.61 3.12 2.46 2.26 2.03 2.19 1.89 0.91 0.47 0.39 0.53 0.31 0.28 0.31 0.48 0.67 0.97 1.34 1.17 0.58 0.24 0.41 0.28 0.35 0.53 0.31 0.78 1.07 1.58 1.14 0.91 0.72 0.54 0.48 0.37 0.13 0.05 0.07
1.71 1.81 1.84 1.59 1.57 1.41 1.36 1.32 1.20 1.06 0.97 1.36 1.48 1.44 1.58 2.22 3.92 5.46 5.81 2.92 2.09 2.10 2.04 1.37 0.81 0.53 0.62 0.69 0.57 0.68 0.67 0.87 1.21 1.19 0.98 0.63 0.36 0.74 0.84 0.52 0.22 0.19 0.30 0.46 0.77 1.01 0.84 0.81 0.59 0.37 0.24 0.18 0.06 0.01
2.00 1.92 1.81 1.54 1.48 1.46 1.69 1.48 1.17 1.00 1.17 1.49 1.39 1.59 1.72 2.66 4.22 3.60 2.63 1.63 1.48 2.06 2.44 1.29 1.06 0.84 0.77 0.96 1.04 0.80 0.89 0.91 1.14 1.24 0.78 0.44 0.43 0.84 1.05 0.62 0.20 0.23 0.27 0.31 0.38 0.46 0.50 0.45 0.38 0.25 0.21 0.17 0.08 0.06
2.20 1.96 1.55 1.37 1.47 1.55 1.58 1.45 1.41 1.32 1.41 1.50 1.71 2.01 2.43 3.64 3.86 2.15 0.81 0.90 1.55 2.28 1.67 1.28 1.08 1.39 1.21 1.35 1.15 1.07 1.08 1.09 1.17 1.24 0.79 0.48 0.69 1.05 1.09 0.27 0.07 0.10 0.10 0.20 0.18 0.13 0.22 0.23 0.20 0.18 0.15 0.14 0.10 0.10
2.10 1.75 1.33 1.25 1.64 1.85 1.62 1.46 1.61 1.68 1.97 2.15 2.71 3.92 6.04 5.96 4.49 2.19 1.43 1.56 2.05 2.55 1.93 0.84 0.91 1.75 1.31 1.66 1.34 1.29 1.41 1.81 1.29 0.84 0.58 0.82 0.94 1.39 0.83 0.26 0.13 0.08 0.07 0.08 0.08 0.06 0.08 0.14 0.15 0.15 0.15 0.13 0.14 0.21
1.85 1.21 1.11 1.20 1.51 1.88 1.94 1.80 1.81 2.32 2.66 3.42 4.62 6.27 6.86 3.81 2.33 2.73 4.22 4.32 3.39 2.16 1.31 0.74 0.44 1.33 1.61 1.65 1.70 1.62 1.23 1.42 1.47 0.77 0.68 0.94 0.99 0.68 0.32 0.19 0.15 0.12 0.08 0.05 0.07 0.07 0.05 0.09 0.10 0.11 0.16 0.18 0.16 0.14
1.30 0.99 0.92 1.07 1.28 1.35 1.39 1.43 1.78 2.24 3.39 4.96 5.16 5.27 3.97 2.76 2.76 3.41 3.32 2.48 1.62 0.97 0.58 0.50 0.52 0.95 1.43 1.79 1.83 2.00 1.82 1.14 0.85 0.85 0.87 0.92 0.54 0.46 0.28 0.23 0.21 0.16 0.15 0.15 0.12 0.07 0.05 0.10 0.17 0.18 0.16 0.12 0.09 0.04
1.17 0.85 0.84 0.81 0.78 0.85 0.91 1.20 1.76 1.87 2.57 2.86 3.17 3.16 3.61 3.23 2.90 2.71 2.01 1.14 0.53 0.41 0.42 0.42 0.42 0.74 1.41 2.15 2.07 1.97 1.94 1.54 1.12 0.83 0.95 0.66 0.48 0.18 0.12 0.12 0.13 0.21 0.22 0.18 0.20 0.27 0.32 0.30 0.24 0.16 0.11 0.08 0.09 0.13
1.08 0.86 0.76 0.85 0.78 0.73 0.80 1.25 1.33 1.38 1.89 2.35 2.70 3.47 3.76 3.32 2.60 1.79 0.98 0.50 0.39 0.31 0.33 0.29 0.52 0.63 0.86 1.45 2.23 1.73 1.60 1.34 1.31 1.57 0.96 0.54 0.26 0.16 0.14 0.14 0.17 0.21 0.26 0.34 0.37 0.42 0.41 0.45 0.45 0.40 0.45 0.57 0.58 0.72
0.70 0.63 0.68 0.89 0.86 0.94 1.12 1.24 1.31 2.00 2.31 2.17 2.26 2.63 2.34 1.95 1.39 1.01 0.59 0.39 0.33 0.33 0.31 0.42 0.59 0.55 0.63 1.02 1.78 1.75 1.50 1.10 1.35 1.29 0.63 0.64 0.58 0.40 0.20 0.15 0.15 0.23 0.29 0.39 0.57 0.61 0.64 0.68 0.86 1.02 1.08 1.14 0.98 1.04
0.64 0.73 0.96 1.10 1.02 1.11 1.41 1.22 1.50 1.40 1.34 1.41 1.27 1.56 1.13 1.34 0.95 0.69 0.59 0.50 0.57 0.58 0.57 0.93 1.26 1.13 1.01 1.24 1.15 1.11 1.05 0.91 0.67 0.64 0.80 0.79 0.52 0.31 0.30 0.28 0.30 0.36 0.46 0.59 0.65 0.63 0.71 0.68 0.57 0.79 0.89 0.84 0.67 0.73
1.08 1.15 1.11 1.04 0.99 1.28 1.35 1.25 1.26 0.90 0.88 0.73 0.72 0.86 0.82 1.03 0.93 0.76 0.80 0.80 0.80 1.11 1.27 1.56 1.43 1.23 1.31 0.94 0.81 0.76 0.62 0.71 0.83 0.60 0.52 0.44 0.44 0.47 0.48 0.53 0.58 0.66 0.69 0.68 0.68 0.60 0.58 0.55 0.45 0.55 0.61 0.56 0.59 0.47
1.14 0.95 0.96 0.91 0.99 1.09 0.99 1.01 0.84 0.65 0.60 0.50 0.80 0.89 0.87 0.99 1.03 0.98 0.96 0.82 0.79 1.16 1.18 1.00 0.85 0.78 0.74 0.56 0.58 0.56 0.80 0.84 0.71 0.64 0.57 0.50 0.52 0.62 0.71 0.73 0.77 0.78 0.71 0.61 0.57 0.55 0.58 0.55 0.41 0.29 0.39 0.56 0.42 0.40
1.34 0.89 0.82 0.78 0.88 1.09 0.98 0.74 0.40 0.23 0.35 0.66 0.80 1.04 0.85 1.11 1.10 0.92 0.91 0.87 1.06 1.00 0.75 0.80 0.40 0.33 0.46 0.53 0.60 0.74 0.79 0.78 0.69 0.74 0.85 0.86 0.78 0.83 0.84 0.86 0.89 0.75 0.61 0.63 0.58 0.59 0.56 0.51 0.41 0.47 0.42 0.43 0.30 0.30
1.00 0.82 0.72 0.62 0.47 0.48 0.52 0.33 0.12 0.23 0.61 0.66 0.78 0.72 0.64 0.80 0.86 0.98 0.87 0.77 0.95 0.96 0.67 0.56 0.58 0.57 0.73 0.91 0.99 0.91 0.93 0.74 0.77 0.88 0.95 1.02 0.97 0.91 0.94 0.89 0.82 0.74 0.64 0.68 0.58 0.53 0.53 0.49 0.44 0.38 0.33 0.27 0.26 0.23
1.26 1.00 0.63 0.46 0.23 0.11 0.06 0.10 0.02 0.10 0.42 0.54 0.62 0.44 0.37 0.58 0.45 0.30 0.31 0.32 0.41 0.62 0.58 0.54 0.89 1.16 1.22 1.20 1.10 1.01 1.03 0.82 0.63 0.57 0.78 0.94 1.03 0.81 0.84 0.70 0.65 0.63 0.52 0.51 0.49 0.45 0.38 0.33 0.32 0.25 0.19 0.15 0.16 0.14
1.14 1.19 0.76 0.38 0.16 0.14 0.07 0.04 0.07 0.08 0.15 0.34 0.31 0.12 0.21 0.12 0.07 0.07 0.04 0.05 0.20 0.52 0.84 1.00 1.02 1.13 1.16 1.07 0.90 0.73 0.74 0.62 0.62 0.42 0.51 0.66 0.85 0.59 0.62 0.65 0.55 0.46 0.40 0.42 0.38 0.38 0.29 0.28 0.22 0.14 0.16 0.12 0.10 0.09
0.63 0.75 0.72 0.40 0.29 0.14 0.10 0.03 0.07 0.09 0.07 0.14 0.14 0.09 0.15 0.15 0.08 0.04 0.01 0.07 0.38 0.71 0.83 0.83 0.79 0.72 0.62 0.70 0.79 0.67 0.75 0.51 0.45 0.40 0.45 0.43 0.50 0.51 0.56 0.62 0.44 0.44 0.41 0.39 0.30 0.24 0.18 0.13 0.11 0.09 0.09 0.08 0.07 0.08
0.50 0.54 0.57 0.46 0.31 0.14 0.11 0.05 0.02 0.05 0.06 0.08 0.06 0.05 0.07 0.08 0.06 0.02 0.06 0.19 0.57 0.83 0.66 0.50 0.57 0.53 0.54 0.66 0.42 0.45 0.55 0.40 0.38 0.43 0.47 0.43 0.42 0.43 0.38 0.39 0.34 0.29 0.24 0.22 0.20 0.19 0.17 0.12 0.07 0.05 0.05 0.08 0.12 0.12
0.44 0.52 0.51 0.44 0.26 0.22 0.10 0.12 0.06 0.05 0.04 0.04 0.06 0.07 0.10 0.07 0.03 0.03 0.13 0.34 0.62 0.46 0.35 0.49 0.40 0.38 0.32 0.26 0.31 0.42 0.54 0.31 0.28 0.32 0.34 0.19 0.17 0.21 0.15 0.15 0.15 0.16 0.17 0.16 0.11 0.11 0.09 0.10 0.09 0.10 0.11 0.13 0.13 0.16
0.39 0.38 0.35 0.30 0.16 0.09 0.07 0.08 0.08 0.05 0.04 0.04 0.05 0.08 0.07 0.04 0.04 0.08 0.17 0.46 0.39 0.37 0.38 0.33 0.26 0.27 0.32 0.39 0.38 0.34 0.24 0.15 0.13 0.15 0.23 0.12 0.13 0.16 0.13 0.12 0.12 0.13 0.11 0.11 0.10 0.12 0.12 0.14 0.14 0.13 0.11 0.14 0.18 0.18
0.28 0.19 0.15 0.15 0.13 0.08 0.06 0.07 0.09 0.09 0.07 0.09 0.14 0.12 0.06 0.08 0.08 0.21 0.35 0.52 0.42 0.41 0.44 0.43 0.35 0.22 0.20 0.19 0.19 0.17 0.13 0.10 0.05 0.09 0.15 0.08 0.10 0.13 0.14 0.14 0.16 0.12 0.08 0.13 0.20 0.19 0.14 0.09 0.10 0.12 0.13 0.17 0.21 0.24
0.15 0.15 0.08 0.08 0.19 0.27 0.23 0.16 0.17 0.18 0.17 0.20 0.19 0.12 0.17 0.16 0.19 0.35 0.41 0.38 0.34 0.37 0.28 0.24 0.18 0.15 0.14 0.14 0.10 0.07 0.04 0.03 0.05 0.10 0.11 0.07 0.06 0.07 0.12 0.22 0.26 0.26 0.13 0.12 0.16 0.20 0.23 0.20 0.18 0.18 0.20 0.23 0.23 0.30
0.07 0.09 0.15 0.18 0.25 0.27 0.35 0.32 0.29 0.27 0.32 0.27 0.27 0.24 0.25 0.21 0.35 0.44 0.41 0.41 0.31 0.22 0.15 0.12 0.10 0.09 0.12 0.15 0.13 0.10 0.10 0.09 0.10 0.11 0.11 0.13 0.08 0.10 0.12 0.14 0.14 0.10 0.08 0.11 0.14 0.16 0.21 0.26 0.28 0.27 0.30 0.28 0.27 0.27
0.12 0.11 0.12 0.12 0.16 0.15 0.20 0.28 0.36 0.33 0.31 0.28 0.31 0.29 0.24 0.32 0.56 0.53 0.49 0.34 0.27 0.20 0.18 0.17 0.21 0.16 0.13 0.16 0.10 0.10 0.12 0.16 0.22 0.23 0.25 0.34 0.30 0.23 0.12 0.10 0.10 0.10 0.11 0.11 0.10 0.16 0.20 0.24 0.24 0.27 0.35 0.36 0.34 0.40
0.09 0.07 0.08 0.08 0.09 0.16 0.30 0.21 0.24 0.18 0.11 0.12 0.12 0.15 0.19 0.42 0.62 0.50 0.44 0.35 0.32 0.35 0.36 0.27 0.25 0.20 0.20 0.16 0.16 0.16 0.22 0.21 0.25 0.31 0.32 0.29 0.28 0.23 0.15 0.13 0.13 0.13 0.12 0.13 0.12 0.11 0.10 0.11 0.14 0.18 0.21 0.26 0.36 0.44
0.11 0.13 0.15 0.13 0.19 0.30 0.26 0.16 0.18 0.15 0.15 0.14 0.15 0.16 0.27 0.39 0.45 0.33 0.33 0.45 0.31 0.26 0.23 0.21 0.20 0.21 0.20 0.21 0.25 0.25 0.32 0.27 0.26 0.26 0.25 0.26 0.23 0.18 0.15 0.12 0.11 0.12 0.12 0.12 0.14 0.17 0.19 0.16 0.20 0.25 0.23 0.25 0.30 0.31
0.16 0.24 0.25 0.23 0.31 0.28 0.30 0.38 0.31 0.30 0.24 0.21 0.22 0.17 0.29 0.27 0.26 0.31 0.28 0.31 0.33 0.29 0.30 0.30 0.32 0.34 0.36 0.38 0.35 0.35 0.33 0.29 0.23 0.20 0.17 0.17 0.16 0.14 0.11 0.09 0.09 0.12 0.13 0.13 0.14 0.17 0.17 0.20 0.25 0.26 0.29 0.26 0.26 0.25
0.14 0.16 0.20 0.23 0.24 0.31 0.35 0.40 0.35 0.31 0.30 0.26 0.28 0.30 0.31 0.30 0.34 0.42 0.32 0.34 0.55 0.56 0.45 0.43 0.46 0.45 0.47 0.40 0.32 0.31 0.28 0.24 0.19 0.15 0.14 0.12 0.09 0.06 0.06 0.08 0.09 0.09 0.10 0.11 0.15 0.16 0.16 0.14 0.16 0.17 0.16 0.16 0.16 0.14

GFSWCAN_prec_precacc_174.txt.gz
Total_Precipitation_Accumulation
1.85 1.69 1.62 1.34 1.51 1.82 1.22 1.24 1.16 1.02 0.94 0.92 0.95 0.79 0.68 0.93 1.61 2.33 2.24 1.67 3.84 2.64 0.65 0.40 0.27 0.16 0.16 0.48 0.81 0.59 0.88 0.82 0.84 0.83 0.75 0.52 0.32 0.23 0.26 0.51 0.88 0.72 0.69 0.68 0.77 0.86 0.52 0.10 0.23 0.76 1.40 0.77 0.69 0.64
2.22 1.84 1.61 1.41 1.40 1.66 1.21 1.27 1.21 1.00 0.84 0.79 0.90 0.82 0.84 1.07 1.73 2.21 2.34 1.72 2.89 3.32 1.32 0.47 0.37 0.15 0.10 0.21 0.62 0.79 0.70 0.54 0.41 0.59 0.52 0.44 0.38 0.36 0.34 0.55 0.84 0.94 0.54 0.69 0.50 0.59 0.42 0.28 0.32 0.28 0.19 0.16 0.12 0.14
2.23 1.99 2.00 1.47 1.45 1.57 1.34 1.35 1.20 1.05 0.94 0.91 0.96 1.00 1.01 1.34 1.90 2.31 2.21 2.01 3.92 4.18 1.67 0.66 0.50 0.27 0.13 0.16 0.40 0.69 0.45 0.34 0.46 0.71 0.77 0.77 0.63 0.50 0.49 0.51 0.75 0.97 0.66 1.06 0.97 0.67 0.34 0.35 0.33 0.14 0.11 0.10 0.09 0.19
2.26 1.95 2.14 1.67 1.64 1.46 1.22 1.26 1.09 0.93 0.96 1.14 1.25 1.16 1.20 1.70 2.17 2.53 2.35 2.10 2.89 2.92 2.24 0.80 0.26 0.31 0.20 0.13 0.31 0.32 0.33 0.39 0.55 0.81 0.93 0.85 0.57 0.35 0.33 0.36 0.49 0.55 0.91 1.39 1.24 0.87 0.55 0.37 0.37 0.34 0.23 0.24 0.17 0.06
1.85 1.89 1.92 1.63 1.76 1.40 1.19 1.18 1.10 0.97 1.05 1.23 1.56 1.31 1.54 1.90 2.66 3.15 2.47 2.26 2.04 2.23 1.92 0.92 0.47 0.39 0.53 0.31 0.28 0.32 0.53 0.72 1.00 1.36 1.20 0.60 0.24 0.42 0.28 0.35 0.53 0.31 0.78 1.07 1.58 1.14 0.91 0.72 0.54 0.48 0.37 0.13 0.05 0.07
1.71 1.81 1.84 1.59 1.58 1.41 1.36 1.32 1.21 1.06 0.98 1.36 1.49 1.47 1.61 2.25 3.97 5.48 5.81 2.92 2.09 2.21 2.26 1.47 0.82 0.53 0.62 0.69 0.57 0.68 0.67 0.89 1.22 1.20 0.98 0.63 0.36 0.74 0.84 0.52 0.22 0.19 0.30 0.46 0.77 1.01 0.84 0.81 0.59 0.37 0.24 0.18 0.06 0.01
2.00 1.92 1.82 1.54 1.48 1.47 1.70 1.48 1.18 1.02 1.19 1.51 1.42 1.63 1.75 2.69 4.24 3.60 2.63 1.64 1.49 2.09 2.70 1.45 1.07 0.84 0.77 0.96 1.04 0.80 0.89 0.91 1.14 1.24 0.78 0.44 0.43 0.84 1.05 0.62 0.20 0.23 0.27 0.31 0.38 0.46 0.50 0.45 0.38 0.25 0.21 0.17 0.08 0.06
2.21 1.96 1.56 1.38 1.48 1.56 1.59 1.46 1.42 1.34 1.43 1.53 1.75 2.04 2.48 3.70 3.91 2.18 0.81 0.92 1.63 2.37 1.83 1.38 1.09 1.39 1.21 1.35 1.15 1.07 1.09 1.09 1.17 1.24 0.79 0.48 0.69 1.06 1.09 0.27 0.07 0.10 0.10 0.20 0.18 0.13 0.22 0.23 0.20 0.18 0.15 0.14 0.10 0.10
2.10 1.76 1.34 1.26 1.66 1.86 1.62 1.46 1.62 1.69 1.99 2.19 2.75 3.96 6.11 6.05 4.52 2.19 1.45 1.58 2.28 2.90 2.12 0.90 0.91 1.75 1.31 1.66 1.34 1.29 1.42 1.83 1.30 0.85 0.58 0.83 0.95 1.40 0.83 0.26 0.13 0.08 0.07 0.08 0.08 0.06 0.08 0.14 0.15 0.15 0.15 0.13 0.14 0.21
1.86 1.21 1.12 1.21 1.52 1.88 1.94 1.80 1.81 2.33 2.69 3.50 4.74 6.49 7.05 3.84 2.35 2.78 4.34 4.48 3.64 2.43 1.43 0.76 0.44 1.33 1.61 1.65 1.70 1.62 1.24 1.44 1.49 0.77 0.69 0.99 1.01 0.68 0.32 0.19 0.15 0.12 0.08 0.05 0.07 0.07 0.05 0.09 0.10 0.11 0.16 0.18 0.16 0.14
1.31 0.99 0.93 1.07 1.28 1.35 1.39 1.44 1.80 2.29 3.48 5.13 5.31 5.34 4.02 2.78 2.83 3.54 3.49 2.64 1.73 1.05 0.62 0.51 0.52 0.95 1.43 1.79 1.83 2.01 1.84 1.16 0.87 0.85 0.88 0.93 0.54 0.46 0.28 0.23 0.21 0.16 0.15 0.15 0.12 0.07 0.05 0.10 0.17 0.18 0.16 0.12 0.09 0.04
1.17 0.86 0.84 0.81 0.78 0.86 0.91 1.21 1.80 1.97 2.66 2.94 3.21 3.40 3.73 3.39 3.06 2.81 2.09 1.17 0.54 0.41 0.42 0.42 0.42 0.74 1.41 2.15 2.07 1.97 1.95 1.59 1.17 0.85 0.99 0.67 0.48 0.18 0.12 0.12 0.13 0.21 0.22 0.18 0.20 0.27 0.32 0.30 0.24 0.16 0.11 0.08 0.09 0.13
1.09 0.86 0.76 0.85 0.79 0.73 0.82 1.28 1.41 1.48 1.94 2.40 2.86 3.75 3.82 3.41 2.67 1.81 0.98 0.50 0.39 0.31 0.33 0.29 0.52 0.63 0.87 1.46 2.23 1.73 1.60 1.36 1.37 1.68 0.99 0.54 0.27 0.17 0.15 0.15 0.18 0.22 0.26 0.34 0.37 0.42 0.41 0.45 0.45 0.40 0.45 0.57 0.58 0.72
0.71 0.65 0.70 0.92 0.90 1.01 1.21 1.32 1.41 2.12 2.43 2.27 2.40 2.67 2.35 1.96 1.39 1.01 0.59 0.39 0.33 0.33 0.31 0.42 0.59 0.55 0.64 1.02 1.78 1.76 1.50 1.10 1.37 1.33 0.66 0.64 0.61 0.42 0.21 0.16 0.15 0.24 0.29 0.39 0.57 0.61 0.64 0.68 0.86 1.02 1.08 1.14 0.98 1.04
0.66 0.77 1.04 1.20 1.12 1.21 1.50 1.29 1.56 1.45 1.38 1.44 1.28 1.56 1.13 1.34 0.95 0.69 0.59 0.50 0.57 0.58 0.57 0.94 1.30 1.17 1.08 1.30 1.17 1.11 1.06 0.92 0.67 0.64 0.80 0.79 0.52 0.31 0.30 0.28 0.30 0.36 0.46 0.59 0.65 0.63 0.71 0.68 0.57 0.79 0.89 0.84 0.67 0.73
1.09 1.16 1.14 1.07 1.03 1.32 1.37 1.25 1.27 0.90 0.88 0.73 0.72 0.86 0.82 1.03 0.93 0.76 0.80 0.80 0.80 1.11 1.27 1.56 1.45 1.30 1.44 1.07 0.93 0.78 0.62 0.71 0.84 0.60 0.53 0.44 0.44 0.47 0.48 0.53 0.59 0.66 0.69 0.68 0.68 0.60 0.58 0.55 0.45 0.55 0.61 0.56 0.59 0.47
1.15 0.97 0.98 0.93 1.01 1.09 0.99 1.02 0.84 0.65 0.60 0.50 0.80 0.89 0.87 0.99 1.03 0.98 0.96 0.82 0.79 1.16 1.18 1.01 0.88 0.81 0.77 0.62 0.62 0.57 0.80 0.85 0.71 0.64 0.57 0.51 0.53 0.62 0.71 0.73 0.78 0.78 0.71 0.61 0.57 0.55 0.58 0.55 0.41 0.29 0.39 0.56 0.42 0.40
1.34 0.89 0.82 0.78 0.88 1.09 0.98 0.74 0.40 0.23 0.35 0.66 0.80 1.04 0.85 1.11 1.10 0.92 0.91 0.87 1.07 1.02 0.77 0.82 0.43 0.39 0.51 0.55 0.60 0.74 0.79 0.78 0.69 0.75 0.85 0.87 0.78 0.83 0.84 0.87 0.90 0.76 0.62 0.64 0.58 0.59 0.56 0.51 0.41 0.47 0.42 0.43 0.30 0.30
1.00 0.82 0.72 0.62 0.47 0.48 0.52 0.33 0.12 0.23 0.61 0.66 0.78 0.72 0.64 0.80 0.86 0.98 0.89 0.82 1.03 1.04 0.81 0.67 0.64 0.60 0.73 0.91 0.99 0.91 0.93 0.74 0.79 0.91 0.97 1.03 0.97 0.92 0.95 0.90 0.83 0.75 0.66 0.69 0.59 0.53 0.53 0.49 0.44 0.39 0.33 0.27 0.27 0.23
1.26 1.00 0.63 0.46 0.23 0.11 0.06 0.10 0.02 0.10 0.42 0.54 0.62 0.44 0.37 0.58 0.45 0.31 0.33 0.40 0.56 0.83 0.75 0.67 0.96 1.18 1.22 1.21 1.11 1.01 1.03 0.82 0.63 0.57 0.79 0.95 1.04 0.81 0.85 0.70 0.66 0.64 0.52 0.52 0.49 0.45 0.38 0.33 0.32 0.25 0.19 0.15 0.16 0.14
1.14 1.19 0.76 0.38 0.16 0.14 0.07 0.04 0.07 0.08 0.15 0.34 0.31 0.12 0.21 0.12 0.07 0.07 0.04 0.08 0.29 0.62 0.95 1.11 1.10 1.18 1.18 1.08 0.90 0.73 0.74 0.62 0.62 0.42 0.51 0.67 0.86 0.59 0.62 0.65 0.56 0.47 0.40 0.43 0.39 0.39 0.30 0.28 0.22 0.14 0.16 0.12 0.10 0.09
0.63 0.75 0.72 0.40 0.29 0.14 0.10 0.03 0.07 0.09 0.07 0.14 0.14 0.09 0.16 0.15 0.09 0.04 0.01 0.07 0.39 0.75 0.89 0.90 0.86 0.78 0.69 0.76 0.85 0.71 0.77 0.52 0.45 0.40 0.45 0.43 0.50 0.51 0.57 0.63 0.44 0.44 0.41 0.40 0.30 0.25 0.18 0.13 0.11 0.09 0.09 0.08 0.07 0.08
0.50 0.54 0.57 0.46 0.31 0.14 0.11 0.05 0.02 0.05 0.06 0.08 0.06 0.05 0.08 0.09 0.07 0.02 0.07 0.19 0.57 0.84 0.68 0.53 0.60 0.57 0.57 0.70 0.46 0.49 0.59 0.42 0.39 0.45 0.48 0.44 0.43 0.44 0.39 0.40 0.35 0.29 0.25 0.22 0.20 0.20 0.17 0.12 0.07 0.05 0.05 0.08 0.12 0.12
0.44 0.52 0.51 0.44 0.26 0.22 0.10 0.12 0.06 0.05 0.04 0.04 0.06 0.07 0.10 0.08 0.04 0.03 0.14 0.34 0.62 0.47 0.36 0.49 0.41 0.39 0.34 0.30 0.35 0.47 0.58 0.33 0.30 0.33 0.35 0.19 0.18 0.21 0.15 0.15 0.15 0.16 0.18 0.17 0.11 0.12 0.09 0.10 0.09 0.10 0.11 0.13 0.13 0.16
0.39 0.38 0.35 0.30 0.16 0.09 0.07 0.08 0.08 0.05 0.04 0.04 0.05 0.08 0.07 0.04 0.04 0.09 0.17 0.47 0.40 0.39 0.40 0.34 0.26 0.28 0.34 0.43 0.44 0.40 0.29 0.16 0.13 0.15 0.23 0.13 0.13 0.16 0.13 0.12 0.12 0.13 0.11 0.11 0.10 0.12 0.12 0.14 0.14 0.13 0.11 0.14 0.18 0.19
0.28 0.19 0.15 0.15 0.13 0.08 0.06 0.07 0.09 0.10 0.07 0.09 0.14 0.12 0.06 0.09 0.09 0.21 0.35 0.53 0.43 0.42 0.45 0.45 0.36 0.23 0.22 0.22 0.22 0.20 0.15 0.10 0.05 0.09 0.16 0.09 0.10 0.13 0.14 0.14 0.16 0.12 0.08 0.13 0.20 0.19 0.14 0.09 0.10 0.12 0.14 0.17 0.22 0.25
0.15 0.15 0.08 0.08 0.19 0.27 0.23 0.16 0.17 0.18 0.18 0.21 0.21 0.14 0.18 0.16 0.20 0.35 0.42 0.40 0.36 0.38 0.30 0.26 0.19 0.15 0.16 0.16 0.11 0.08 0.05 0.03 0.05 0.10 0.12 0.08 0.06 0.08 0.12 0.22 0.26 0.26 0.13 0.12 0.16 0.20 0.23 0.20 0.18 0.18 0.21 0.23 0.23 0.30
0.07 0.09 0.15 0.18 0.25 0.27 0.36 0.32 0.29 0.27 0.33 0.28 0.29 0.25 0.27 0.23 0.37 0.46 0.44 0.43 0.32 0.23 0.15 0.12 0.11 0.10 0.13 0.16 0.14 0.11 0.11 0.10 0.11 0.11 0.12 0.14 0.09 0.11 0.12 0.14 0.14 0.10 0.08 0.11 0.14 0.16 0.21 0.27 0.28 0.28 0.30 0.28 0.27 0.27
0.12 0.11 0.12 0.12 0.16 0.15 0.21 0.29 0.37 0.34 0.31 0.29 0.32 0.30 0.25 0.34 0.58 0.53 0.50 0.35 0.28 0.21 0.19 0.17 0.21 0.16 0.14 0.17 0.11 0.11 0.13 0.17 0.23 0.24 0.26 0.35 0.31 0.24 0.12 0.10 0.10 0.10 0.11 0.11 0.10 0.16 0.20 0.24 0.24 0.27 0.35 0.36 0.34 0.40
0.09 0.07 0.08 0.08 0.09 0.16 0.30 0.21 0.25 0.18 0.11 0.12 0.12 0.15 0.19 0.42 0.63 0.51 0.45 0.35 0.33 0.35 0.37 0.28 0.26 0.21 0.20 0.17 0.16 0.17 0.23 0.22 0.26 0.32 0.33 0.30 0.29 0.24 0.15 0.13 0.13 0.13 0.12 0.13 0.12 0.11 0.10 0.11 0.14 0.18 0.21 0.26 0.36 0.44
0.11 0.13 0.15 0.13 0.20 0.30 0.26 0.16 0.18 0.15 0.16 0.15 0.16 0.16 0.28 0.39 0.45 0.33 0.33 0.45 0.32 0.26 0.24 0.22 0.21 0.23 0.22 0.23 0.26 0.26 0.32 0.28 0.27 0.27 0.26 0.27 0.24 0.19 0.15 0.12 0.11 0.12 0.12 0.12 0.14 0.17 0.19 0.16 0.20 0.25 0.23 0.25 0.30 0.31
0.16 0.24 0.25 0.23 0.31 0.28 0.30 0.38 0.31 0.31 0.25 0.22 0.23 0.18 0.29 0.27 0.26 0.31 0.28 0.31 0.33 0.29 0.31 0.31 0.33 0.35 0.37 0.40 0.37 0.36 0.34 0.29 0.23 0.21 0.18 0.17 0.17 0.14 0.11 0.09 0.09 0.12 0.13 0.13 0.14 0.17 0.17 0.20 0.25 0.26 0.29 0.26 0.26 0.25
0.14 0.16 0.20 0.23 0.24 0.31 0.35 0.40 0.35 0.31 0.30 0.26 0.28 0.31 0.32 0.30 0.34 0.42 0.32 0.34 0.55 0.56 0.45 0.44 0.46 0.46 0.47 0.41 0.33 0.32 0.29 0.25 0.19 0.16 0.15 0.12 0.09 0.07 0.06 0.08 0.09 0.09 0.10 0.11 0.15 0.16 0.16 0.14 0.16 0.17 0.16 0.16 0.16 0.14

GFSWCAN_prec_precacc_180.txt.gz
Total_Precipitation_Accumulation
1.89 1.73 1.67 1.36 1.53 1.84 1.24 1.25 1.16 1.02 0.94 0.92 0.95 0.79 0.68 0.93 1.62 2.34 2.25 1.67 3.84 2.64 0.66 0.40 0.28 0.17 0.18 0.52 0.87 0.64 0.94 0.85 0.89 0.92 0.79 0.59 0.39 0.28 0.28 0.52 0.89 0.73 0.71 0.70 0.78 0.89 0.53 0.10 0.23 0.78 1.42 0.78 0.70 0.65
2.26 1.88 1.66 1.46 1.42 1.68 1.23 1.27 1.21 1.00 0.84 0.79 0.90 0.82 0.84 1.07 1.74 2.23 2.35 1.72 2.90 3.34 1.33 0.47 0.37 0.15 0.11 0.21 0.67 0.85 0.76 0.60 0.50 0.67 0.57 0.47 0.40 0.38 0.34 0.55 0.84 0.94 0.54 0.71 0.51 0.59 0.43 0.28 0.33 0.29 0.19 0.16 0.12 0.15
2.29 2.04 2.05 1.52 1.50 1.60 1.35 1.37 1.20 1.05 0.94 0.91 0.96 1.00 1.01 1.34 1.91 2.34 2.22 2.01 3.93 4.20 1.67 0.66 0.50 0.27 0.13 0.16 0.41 0.74 0.49 0.43 0.60 0.87 0.99 0.92 0.69 0.51 0.50 0.53 0.76 0.97 0.69 1.11 1.01 0.68 0.35 0.35 0.34 0.15 0.12 0.10 0.10 0.20
2.34 2.01 2.21 1.74 1.71 1.53 1.27 1.28 1.10 0.94 0.96 1.14 1.25 1.16 1.20 1.71 2.18 2.56 2.36 2.11 2.90 2.93 2.25 0.80 0.26 0.31 0.20 0.13 0.31 0.32 0.34 0.44 0.68 0.97 1.14 1.12 0.73 0.40 0.34 0.38 0.50 0.56 0.92 1.40 1.25 0.87 0.56 0.37 0.37 0.35 0.25 0.26 0.20 0.08
1.89 1.92 1.95 1.68 1.86 1.54 1.31 1.26 1.12 0.98 1.05 1.23 1.56 1.31 1.54 1.91 2.68 3.19 2.50 2.26 2.05 2.26 1.95 0.93 0.47 0.39 0.53 0.31 0.28 0.32 0.54 0.78 1.16 1.62 1.49 0.77 0.31 0.45 0.31 0.37 0.54 0.31 0.78 1.07 1.58 1.14 0.91 0.72 0.54 0.48 0.37 0.13 0.05 0.07
1.73 1.83 1.86 1.62 1.62 1.51 1.52 1.49 1.32 1.09 0.98 1.36 1.49 1.47 1.61 2.28 4.02 5.51 5.85 2.93 2.09 2.23 2.29 1.48 0.82 0.53 0.62 0.69 0.57 0.68 0.68 0.94 1.41 1.47 1.20 0.78 0.44 0.82 0.91 0.54 0.23 0.19 0.30 0.46 0.77 1.01 0.84 0.81 0.59 0.37 0.24 0.18 0.06 0.01
2.03 1.93 1.83 1.55 1.50 1.49 1.75 1.58 1.29 1.09 1.19 1.51 1.42 1.63 1.77 2.73 4.26 3.61 2.64 1.65 1.49 2.11 2.72 1.47 1.08 0.84 0.77 0.97 1.04 0.81 0.92 0.99 1.23 1.36 0.88 0.47 0.44 0.86 1.07 0.63 0.20 0.23 0.27 0.31 0.38 0.46 0.50 0.45 0.38 0.25 0.21 0.17 0.08 0.06
2.22 1.98 1.57 1.39 1.49 1.59 1.61 1.49 1.45 1.36 1.43 1.54 1.76 2.07 2.53 3.79 4.00 2.21 0.83 0.97 1.71 2.45 1.85 1.39 1.09 1.39 1.21 1.36 1.17 1.09 1.13 1.21 1.32 1.31 0.80 0.48 0.69 1.06 1.09 0.27 0.07 0.10 0.10 0.20 0.18 0.13 0.22 0.23 0.20 0.18 0.15 0.14 0.10 0.10
2.11 1.76 1.34 1.26 1.68 1.89 1.65 1.48 1.65 1.72 2.04 2.26 2.82 4.03 6.19 6.16 4.58 2.20 1.46 1.62 2.39 3.34 2.46 0.98 0.92 1.75 1.32 1.67 1.37 1.38 1.54 1.95 1.37 0.87 0.58 0.83 0.95 1.41 0.83 0.26 0.13 0.08 0.07 0.08 0.08 0.06 0.08 0.14 0.15 0.15 0.15 0.13 0.14 0.21
1.86 1.22 1.13 1.22 1.55 1.92 1.97 1.82 1.86 2.39 2.79 3.60 4.80 6.53 7.09 3.86 2.36 2.83 4.45 4.61 3.73 2.50 1.56 0.87 0.49 1.36 1.64 1.70 1.76 1.68 1.30 1.48 1.52 0.78 0.70 1.02 1.01 0.68 0.32 0.19 0.15 0.12 0.08 0.05 0.07 0.07 0.05 0.09 0.10 0.11 0.16 0.18 0.16 0.14
1.31 0.99 0.93 1.08 1.31 1.38 1.42 1.47 1.85 2.36 3.60 5.22 5.39 5.36 4.06 2.84 2.90 3.63 3.68 2.91 1.86 1.13 0.65 0.51 0.52 0.98 1.48 1.93 1.97 2.03 1.86 1.18 0.89 0.85 0.89 0.94 0.54 0.46 0.28 0.23 0.21 0.16 0.15 0.15 0.12 0.07 0.05 0.10 0.17 0.18 0.16 0.12 0.09 0.04
1.18 0.86 0.85 0.82 0.80 0.91 0.96 1.24 1.84 1.99 2.68 2.95 3.26 3.47 4.04 3.71 3.17 2.92 2.19 1.29 0.72 0.47 0.43 0.42 0.42 0.74 1.41 2.17 2.13 2.05 1.98 1.61 1.19 0.88 1.05 0.68 0.48 0.18 0.12 0.12 0.13 0.21 0.22 0.18 0.20 0.28 0.33 0.31 0.24 0.16 0.11 0.08 0.09 0.13
1.09 0.87 0.77 0.86 0.79 0.77 0.84 1.32 1.44 1.49 1.97 2.45 2.96 4.16 4.41 3.60 2.79 1.86 1.04 0.56 0.42 0.33 0.34 0.30 0.52 0.63 0.88 1.48 2.29 1.78 1.64 1.37 1.39 1.70 1.00 0.54 0.27 0.18 0.16 0.16 0.21 0.29 0.39 0.48 0.48 0.48 0.44 0.45 0.45 0.40 0.45 0.57 0.58 0.72
0.72 0.65 0.72 0.93 0.91 1.03 1.24 1.35 1.45 2.17 2.49 2.42 2.54 2.91 2.56 2.04 1.45 1.05 0.60 0.40 0.34 0.34 0.32 0.43 0.60 0.56 0.66 1.05 1.83 1.78 1.51 1.11 1.38 1.34 0.66 0.64 0.61 0.42 0.23 0.18 0.22 0.35 0.40 0.46 0.59 0.61 0.64 0.68 0.86 1.02 1.08 1.14 0.98 1.04
0.68 0.79 1.06 1.23 1.14 1.24 1.55 1.35 1.61 1.52 1.50 1.74 1.63 1.74 1.16 1.35 0.97 0.73 0.59 0.50 0.58 0.58 0.57 0.95 1.33 1.19 1.10 1.33 1.18 1.12 1.07 0.93 0.67 0.64 0.80 0.79 0.53 0.32 0.31 0.29 0.34 0.44 0.48 0.59 0.65 0.63 0.71 0.68 0.57 0.79 0.89 0.84 0.67 0.73
1.13 1.26 1.25 1.13 1.09 1.38 1.45 1.34 1.40 1.08 1.08 0.89 0.94 1.00 0.83 1.04 0.93 0.76 0.80 0.80 0.80 1.12 1.29 1.59 1.49 1.37 1.52 1.13 1.02 0.80 0.62 0.71 0.84 0.60 0.53 0.45 0.45 0.47 0.49 0.54 0.62 0.69 0.69 0.68 0.68 0.60 0.58 0.55 0.45 0.55 0.61 0.56 0.59 0.47
1.21 1.05 1.08 1.01 1.07 1.15 1.08 1.17 1.05 0.82 0.73 0.61 0.83 0.94 0.89 0.99 1.03 0.99 0.96 0.82 0.79 1.17 1.20 1.04 0.91 0.82 0.79 0.66 0.66 0.58 0.81 0.85 0.71 0.64 0.57 0.51 0.53 0.63 0.74 0.77 0.82 0.79 0.71 0.61 0.57 0.55 0.58 0.55 0.41 0.29 0.39 0.57 0.42 0.40
1.41 0.94 0.90 0.84 0.98 1.28 1.24 0.94 0.59 0.36 0.40 0.67 0.81 1.04 0.85 1.11 1.10 0.92 0.91 0.87 1.08 1.04 0.79 0.85 0.46 0.43 0.53 0.56 0.62 0.77 0.80 0.78 0.70 0.75 0.87 0.88 0.79 0.85 0.88 0.90 0.93 0.79 0.65 0.67 0.60 0.59 0.56 0.51 0.41 0.48 0.43 0.44 0.30 0.31
1.01 0.85 0.78 0.71 0.59 0.63 0.71 0.53 0.28 0.34 0.64 0.66 0.78 0.72 0.64 0.80 0.86 0.98 0.89 0.83 1.05 1.09 0.94 0.80 0.72 0.63 0.74 0.91 0.99 0.92 0.93 0.75 0.81 0.95 1.02 1.08 1.02 0.95 0.99 0.94 0.86 0.79 0.69 0.71 0.60 0.54 0.54 0.49 0.44 0.39 0.34 0.28 0.27 0.24
1.26 1.00 0.63 0.46 0.23 0.11 0.07 0.11 0.02 0.11 0.42 0.54 0.62 0.44 0.37 0.58 0.45 0.31 0.34 0.43 0.62 0.96 0.93 0.80 1.02 1.21 1.24 1.23 1.13 1.03 1.06 0.86 0.67 0.63 0.87 1.03 1.09 0.85 0.89 0.73 0.68 0.66 0.54 0.53 0.50 0.45 0.38 0.34 0.33 0.26 0.19 0.15 0.16 0.15
1.14 1.19 0.76 0.38 0.16 0.14 0.07 0.04 0.07 0.08 0.15 0.34 0.31 0.12 0.22 0.12 0.07 0.07 0.05 0.11 0.41 0.77 1.08 1.22 1.23 1.33 1.34 1.22 1.06 0.86 0.86 0.72 0.70 0.49 0.58 0.73 0.91 0.62 0.66 0.69 0.58 0.48 0.42 0.44 0.40 0.40 0.30 0.29 0.23 0.15 0.16 0.13 0.10 0.10
0.63 0.75 0.72 0.40 0.29 0.14 0.10 0.03 0.07 0.09 0.07 0.14 0.14 0.09 0.16 0.15 0.09 0.05 0.02 0.08 0.44 0.82 0.99 1.01 0.99 0.92 0.83 0.92 1.03 0.89 0.92 0.62 0.53 0.47 0.51 0.47 0.54 0.55 0.61 0.67 0.46 0.46 0.42 0.41 0.31 0.26 0.18 0.13 0.11 0.09 0.09 0.08 0.07 0.08
0.50 0.54 0.57 0.46 0.31 0.14 0.11 0.05 0.02 0.05 0.06 0.10 0.07 0.06 0.10 0.16 0.16 0.07 0.10 0.21 0.61 0.89 0.75 0.61 0.69 0.66 0.68 0.84 0.61 0.63 0.72 0.53 0.49 0.54 0.55 0.49 0.48 0.48 0.42 0.43 0.36 0.30 0.25 0.23 0.21 0.20 0.17 0.12 0.07 0.05 0.05 0.08 0.12 0.12
0.44 0.52 0.51 0.44 0.26 0.22 0.10 0.12 0.06 0.05 0.04 0.04 0.07 0.08 0.11 0.10 0.06 0.06 0.16 0.36 0.66 0.51 0.41 0.55 0.46 0.45 0.42 0.39 0.45 0.57 0.70 0.44 0.39 0.42 0.44 0.25 0.22 0.25 0.17 0.16 0.16 0.16 0.18 0.17 0.12 0.12 0.09 0.10 0.09 0.10 0.12 0.13 0.13 0.16
0.39 0.38 0.35 0.30 0.16 0.09 0.07 0.08 0.08 0.05 0.05 0.04 0.05 0.09 0.08 0.04 0.06 0.10 0.19 0.48 0.42 0.42 0.43 0.38 0.29 0.31 0.38 0.49 0.52 0.50 0.39 0.25 0.20 0.21 0.31 0.17 0.15 0.19 0.14 0.13 0.13 0.14 0.11 0.11 0.10 0.12 0.12 0.14 0.14 0.13 0.11 0.14 0.18 0.19
0.28 0.19 0.15 0.15 0.13 0.08 0.06 0.08 0.10 0.11 0.08 0.09 0.15 0.13 0.08 0.11 0.10 0.23 0.36 0.54 0.45 0.45 0.47 0.47 0.39 0.26 0.25 0.26 0.27 0.27 0.23 0.17 0.11 0.15 0.21 0.13 0.13 0.14 0.15 0.14 0.16 0.12 0.08 0.13 0.20 0.19 0.14 0.09 0.10 0.12 0.14 0.17 0.22 0.25
0.15 0.15 0.08 0.08 0.19 0.27 0.23 0.16 0.17 0.19 0.19 0.23 0.22 0.15 0.20 0.20 0.23 0.37 0.44 0.42 0.38 0.41 0.33 0.29 0.22 0.18 0.18 0.19 0.15 0.12 0.10 0.07 0.10 0.16 0.17 0.12 0.11 0.11 0.14 0.24 0.28 0.27 0.13 0.12 0.16 0.20 0.23 0.21 0.18 0.18 0.21 0.24 0.24 0.30
0.07 0.09 0.15 0.18 0.25 0.27 0.36 0.32 0.29 0.28 0.34 0.29 0.29 0.26 0.28 0.26 0.40 0.48 0.46 0.45 0.35 0.26 0.18 0.15 0.13 0.13 0.16 0.20 0.18 0.15 0.14 0.13 0.12 0.13 0.14 0.17 0.13 0.14 0.15 0.15 0.15 0.10 0.08 0.11 0.14 0.16 0.22 0.27 0.28 0.28 0.30 0.28 0.27 0.27
0.12 0.11 0.12 0.12 0.16 0.15 0.21 0.29 0.38 0.35 0.32 0.29 0.32 0.30 0.26 0.35 0.59 0.54 0.51 0.36 0.29 0.22 0.20 0.18 0.23 0.17 0.16 0.18 0.13 0.13 0.16 0.20 0.26 0.26 0.28 0.37 0.34 0.26 0.14 0.11 0.11 0.11 0.12 0.11 0.11 0.16 0.20 0.24 0.24 0.27 0.35 0.36 0.34 0.40
0.09 0.07 0.08 0.08 0.09 0.16 0.30 0.21 0.25 0.18 0.11 0.13 0.13 0.16 0.19 0.43 0.63 0.52 0.46 0.36 0.34 0.36 0.38 0.30 0.28 0.22 0.21 0.17 0.17 0.18 0.24 0.24 0.28 0.34 0.36 0.32 0.31 0.26 0.16 0.14 0.13 0.14 0.13 0.13 0.12 0.12 0.11 0.12 0.14 0.18 0.21 0.26 0.36 0.44
0.11 0.13 0.15 0.13 0.20 0.30 0.26 0.16 0.18 0.16 0.17 0.16 0.17 0.17 0.28 0.40 0.46 0.34 0.34 0.46 0.32 0.27 0.25 0.23 0.23 0.25 0.24 0.25 0.27 0.28 0.34 0.29 0.29 0.31 0.30 0.31 0.27 0.21 0.16 0.13 0.12 0.12 0.12 0.12 0.14 0.17 0.19 0.16 0.20 0.25 0.23 0.25 0.30 0.31
0.16 0.24 0.25 0.23 0.31 0.28 0.30 0.38 0.31 0.31 0.25 0.23 0.23 0.19 0.30 0.28 0.26 0.31 0.28 0.32 0.33 0.29 0.31 0.31 0.33 0.36 0.39 0.42 0.39 0.38 0.36 0.31 0.25 0.23 0.21 0.21 0.20 0.17 0.13 0.10 0.10 0.12 0.13 0.13 0.14 0.17 0.17 0.20 0.25 0.26 0.29 0.26 0.26 0.25
0.14 0.16 0.20 0.23 0.24 0.31 0.35 0.40 0.35 0.31 0.31 0.27 0.29 0.31 0.32 0.31 0.34 0.42 0.32 0.35 0.55 0.57 0.46 0.44 0.47 0.46 0.48 0.41 0.34 0.33 0.31 0.27 0.21 0.18 0.17 0.14 0.11 0.08 0.07 0.08 0.09 0.09 0.10 0.11 0.15 0.16 0.16 0.14 0.16 0.17 0.16 0.16 0.16 0.14

GFSWCAN_prec_precacc_183.txt.gz
Total_Precipitation_Accumulation
1.89 1.73 1.67 1.36 1.53 1.84 1.24 1.25 1.17 1.03 0.95 0.93 0.95 0.79 0.68 0.93 1.62 2.34 2.25 1.67 3.84 2.64 0.66 0.40 0.28 0.17 0.19 0.53 0.90 0.69 0.97 0.89 0.96 0.99 0.86 0.63 0.43 0.31 0.31 0.54 0.92 0.77 0.75 0.74 0.82 0.93 0.55 0.10 0.23 0.78 1.43 0.78 0.70 0.66
2.26 1.88 1.66 1.46 1.42 1.68 1.24 1.28 1.22 1.00 0.84 0.79 0.90 0.82 0.84 1.07 1.74 2.23 2.35 1.73 2.90 3.35 1.33 0.47 0.37 0.15 0.11 0.21 0.67 0.86 0.79 0.65 0.58 0.76 0.69 0.59 0.47 0.43 0.38 0.58 0.86 0.96 0.55 0.72 0.53 0.62 0.44 0.28 0.33 0.29 0.19 0.16 0.12 0.15
2.30 2.05 2.05 1.53 1.50 1.61 1.36 1.38 1.21 1.05 0.94 0.91 0.96 1.00 1.01 1.34 1.91 2.34 2.22 2.02 3.94 4.20 1.67 0.66 0.50 0.27 0.13 0.16 0.41 0.75 0.50 0.44 0.62 0.93 1.06 1.05 0.78 0.56 0.56 0.57 0.79 0.99 0.70 1.12 1.02 0.68 0.35 0.35 0.34 0.15 0.12 0.10 0.10 0.20
2.38 2.02 2.22 1.75 1.72 1.54 1.27 1.29 1.11 0.94 0.96 1.14 1.25 1.16 1.20 1.71 2.18 2.56 2.37 2.11 2.90 2.94 2.25 0.80 0.26 0.31 0.20 0.13 0.31 0.32 0.34 0.45 0.70 1.03 1.29 1.24 0.77 0.43 0.38 0.42 0.55 0.59 0.95 1.42 1.27 0.87 0.56 0.37 0.37 0.35 0.25 0.26 0.20 0.08
1.99 1.98 1.98 1.71 1.88 1.57 1.33 1.27 1.13 1.00 1.06 1.23 1.56 1.31 1.54 1.91 2.68 3.20 2.51 2.28 2.06 2.27 1.97 0.94 0.47 0.39 0.53 0.31 0.28 0.32 0.54 0.78 1.16 1.64 1.52 0.79 0.32 0.49 0.34 0.39 0.55 0.32 0.79 1.10 1.60 1.14 0.92 0.72 0.54 0.48 0.37 0.13 0.05 0.07
1.78 1.91 1.90 1.64 1.65 1.55 1.56 1.54 1.35 1.11 0.99 1.36 1.49 1.47 1.61 2.28 4.02 5.52 5.85 2.93 2.10 2.25 2.33 1.50 0.82 0.53 0.62 0.69 0.57 0.68 0.68 0.94 1.42 1.49 1.22 0.80 0.45 0.89 1.01 0.58 0.23 0.19 0.30 0.47 0.78 1.01 0.84 0.81 0.59 0.37 0.24 0.18 0.06 0.01
2.03 1.94 1.84 1.56 1.52 1.51 1.76 1.59 1.35 1.21 1.26 1.51 1.42 1.63 1.77 2.74 4.26 3.61 2.66 1.67 1.49 2.14 2.76 1.49 1.08 0.84 0.77 0.97 1.05 0.81 0.93 1.01 1.27 1.38 0.90 0.49 0.47 0.92 1.13 0.65 0.20 0.23 0.27 0.31 0.38 0.46 0.50 0.45 0.38 0.25 0.21 0.17 0.08 0.06
2.23 1.98 1.57 1.39 1.50 1.60 1.62 1.50 1.46 1.41 1.56 1.55 1.76 2.07 2.53 3.79 4.01 2.22 0.84 0.97 1.72 2.48 1.88 1.41 1.10 1.39 1.21 1.36 1.20 1.12 1.15 1.23 1.38 1.39 0.87 0.51 0.73 1.12 1.13 0.27 0.07 0.10 0.10 0.20 0.18 0.13 0.22 0.23 0.20 0.18 0.15 0.14 0.10 0.10
2.12 1.77 1.35 1.27 1.68 1.89 1.65 1.48 1.65 1.72 2.04 2.26 2.83 4.03 6.19 6.17 4.58 2.20 1.46 1.63 2.45 3.42 2.51 1.02 0.93 1.76 1.35 1.71 1.43 1.40 1.57 2.00 1.43 0.95 0.63 0.89 0.99 1.44 0.83 0.26 0.13 0.08 0.07 0.08 0.08 0.06 0.08 0.14 0.15 0.15 0.15 0.13 0.14 0.22
1.86 1.22 1.13 1.22 1.55 1.93 1.98 1.82 1.86 2.40 2.80 3.61 4.81 6.54 7.10 3.86 2.36 2.85 4.47 4.66 3.78 2.53 1.59 0.89 0.50 1.38 1.66 1.75 1.83 1.75 1.42 1.61 1.61 0.81 0.72 1.07 1.02 0.68 0.32 0.19 0.15 0.12 0.08 0.05 0.07 0.07 0.05 0.09 0.10 0.11 0.16 0.18 0.16 0.14
1.31 0.99 0.93 1.08 1.32 1.40 1.44 1.47 1.86 2.38 3.62 5.25 5.41 5.38 4.10 2.86 2.95 3.69 3.73 2.95 1.89 1.15 0.65 0.51 0.52 0.98 1.48 1.94 2.03 2.17 1.97 1.24 0.93 0.88 0.91 0.95 0.54 0.46 0.28 0.23 0.21 0.16 0.15 0.15 0.12 0.07 0.05 0.10 0.17 0.18 0.16 0.12 0.09 0.04
1.18 0.86 0.85 0.82 0.81 0.92 0.98 1.25 1.86 2.01 2.70 2.96 3.28 3.52 4.10 3.76 3.28 2.95 2.22 1.33 0.75 0.48 0.43 0.42 0.42 0.74 1.41 2.17 2.19 2.26 2.12 1.65 1.21 0.92 1.09 0.69 0.48 0.18 0.12 0.12 0.13 0.21 0.22 0.18 0.20 0.28 0.33 0.31 0.24 0.16 0.11 0.08 0.09 0.13
1.09 0.87 0.77 0.87 0.81 0.78 0.85 1.33 1.45 1.53 2.00 2.48 2.99 4.20 4.45 3.62 2.88 1.90 1.05 0.57 0.43 0.35 0.37 0.33 0.55 0.65 0.90 1.52 2.35 1.85 1.67 1.40 1.40 1.71 1.01 0.54 0.27 0.18 0.16 0.16 0.21 0.29 0.39 0.49 0.50 0.50 0.45 0.46 0.45 0.40 0.45 0.57 0.58 0.72
0.72 0.65 0.72 0.93 0.93 1.05 1.25 1.36 1.47 2.20 2.55 2.47 2.59 2.94 2.63 2.15 1.47 1.05 0.61 0.42 0.38 0.37 0.36 0.50 0.66 0.60 0.70 1.10 1.88 1.82 1.54 1.11 1.40 1.35 0.66 0.65 0.62 0.42 0.23 0.18 0.22 0.36 0.44 0.51 0.64 0.63 0.64 0.68 0.86 1.02 1.08 1.14 0.98 1.05
0.68 0.79 1.06 1.23 1.15 1.26 1.56 1.35 1.62 1.54 1.53 1.77 1.66 1.78 1.18 1.37 1.00 0.79 0.65 0.53 0.59 0.60 0.61 1.06 1.44 1.27 1.18 1.40 1.21 1.15 1.09 0.93 0.67 0.64 0.82 0.80 0.53 0.32 0.31 0.29 0.34 0.45 0.53 0.61 0.65 0.63 0.71 0.68 0.57 0.79 0.89 0.84 0.67 0.73
1.13 1.26 1.25 1.13 1.09 1.39 1.46 1.36 1.42 1.12 1.09 0.90 0.95 1.06 0.93 1.13 0.97 0.78 0.82 0.81 0.82 1.13 1.31 1.63 1.55 1.40 1.56 1.16 1.04 0.81 0.63 0.72 0.84 0.63 0.55 0.45 0.45 0.47 0.49 0.54 0.62 0.70 0.70 0.69 0.68 0.60 0.58 0.55 0.45 0.55 0.61 0.56 0.59 0.47
1.21 1.05 1.08 1.01 1.08 1.19 1.11 1.18 1.07 0.84 0.74 0.63 0.85 0.96 0.98 1.11 1.10 1.02 0.97 0.83 0.81 1.20 1.23 1.09 0.94 0.84 0.82 0.71 0.68 0.61 0.83 0.88 0.75 0.67 0.57 0.51 0.53 0.63 0.74 0.78 0.83 0.81 0.72 0.61 0.57 0.55 0.59 0.55 0.41 0.29 0.39 0.57 0.42 0.40
1.42 0.94 0.91 0.84 0.99 1.32 1.31 0.96 0.65 0.41 0.42 0.68 0.83 1.08 0.89 1.14 1.11 0.92 0.91 0.88 1.10 1.08 0.84 0.92 0.51 0.47 0.56 0.57 0.64 0.83 0.85 0.80 0.70 0.75 0.87 0.88 0.79 0.86 0.89 0.92 0.96 0.82 0.67 0.69 0.61 0.60 0.57 0.52 0.41 0.48 0.43 0.44 0.30 0.31
1.08 0.95 0.88 0.76 0.64 0.70 0.82 0.60 0.32 0.41 0.70 0.72 0.80 0.73 0.65 0.80 0.86 0.98 0.89 0.83 1.06 1.11 0.97 0.83 0.75 0.65 0.76 0.94 1.01 0.93 0.93 0.75 0.81 0.95 1.02 1.08 1.02 0.96 1.01 0.96 0.90 0.83 0.72 0.74 0.62 0.54 0.54 0.49 0.44 0.39 0.34 0.28 0.27 0.24
1.27 1.05 0.75 0.61 0.35 0.27 0.27 0.25 0.14 0.20 0.47 0.55 0.62 0.44 0.37 0.58 0.45 0.31 0.35 0.44 0.63 1.01 0.99 0.86 1.05 1.24 1.25 1.23 1.14 1.04 1.06 0.86 0.68 0.65 0.89 1.07 1.14 0.90 0.93 0.77 0.72 0.70 0.57 0.56 0.51 0.46 0.39 0.34 0.33 0.26 0.19 0.16 0.16 0.15
1.14 1.19 0.76 0.41 0.23 0.20 0.11 0.06 0.09 0.11 0.17 0.35 0.31 0.12 0.22 0.12 0.08 0.08 0.06 0.13 0.49 0.87 1.15 1.25 1.24 1.34 1.34 1.22 1.06 0.87 0.88 0.74 0.74 0.53 0.63 0.80 0.99 0.69 0.72 0.74 0.62 0.52 0.45 0.47 0.42 0.41 0.31 0.29 0.23 0.15 0.16 0.13 0.11 0.10
0.63 0.75 0.73 0.40 0.31 0.16 0.11 0.03 0.08 0.10 0.08 0.16 0.16 0.11 0.18 0.16 0.10 0.07 0.05 0.15 0.51 0.85 1.01 1.04 1.01 0.93 0.84 0.93 1.05 0.92 0.95 0.66 0.57 0.51 0.57 0.55 0.64 0.64 0.69 0.74 0.50 0.50 0.46 0.44 0.33 0.28 0.19 0.13 0.11 0.10 0.10 0.09 0.07 0.08
0.50 0.54 0.57 0.46 0.31 0.14 0.11 0.05 0.03 0.07 0.08 0.12 0.10 0.10 0.15 0.20 0.18 0.12 0.17 0.24 0.63 0.90 0.77 0.63 0.70 0.68 0.70 0.85 0.63 0.67 0.77 0.58 0.54 0.59 0.61 0.55 0.53 0.54 0.46 0.47 0.40 0.33 0.27 0.25 0.22 0.21 0.17 0.12 0.07 0.06 0.05 0.08 0.12 0.12
0.44 0.52 0.51 0.44 0.26 0.22 0.10 0.12 0.06 0.06 0.05 0.06 0.09 0.10 0.14 0.11 0.07 0.08 0.18 0.37 0.66 0.51 0.41 0.55 0.46 0.46 0.43 0.40 0.47 0.60 0.74 0.49 0.44 0.47 0.49 0.29 0.25 0.28 0.20 0.19 0.18 0.18 0.19 0.17 0.12 0.12 0.09 0.10 0.09 0.10 0.12 0.13 0.13 0.16
0.39 0.38 0.35 0.30 0.16 0.09 0.07 0.08 0.08 0.05 0.05 0.04 0.06 0.10 0.10 0.05 0.08 0.13 0.20 0.49 0.43 0.42 0.44 0.38 0.29 0.31 0.38 0.51 0.54 0.53 0.42 0.29 0.24 0.25 0.35 0.20 0.19 0.23 0.18 0.16 0.15 0.15 0.12 0.11 0.11 0.12 0.12 0.14 0.15 0.13 0.11 0.15 0.19 0.19
0.28 0.19 0.15 0.15 0.13 0.08 0.06 0.08 0.10 0.11 0.08 0.09 0.16 0.13 0.08 0.13 0.13 0.24 0.37 0.55 0.46 0.46 0.48 0.47 0.39 0.26 0.26 0.27 0.28 0.28 0.24 0.19 0.14 0.17 0.24 0.16 0.15 0.17 0.18 0.17 0.19 0.14 0.08 0.13 0.20 0.19 0.14 0.09 0.10 0.12 0.14 0.17 0.22 0.25
0.15 0.15 0.08 0.08 0.19 0.27 0.23 0.16 0.17 0.19 0.19 0.23 0.23 0.15 0.21 0.21 0.25 0.39 0.45 0.42 0.39 0.42 0.33 0.29 0.22 0.18 0.19 0.20 0.16 0.14 0.11 0.09 0.12 0.18 0.19 0.15 0.13 0.14 0.17 0.27 0.30 0.29 0.14 0.13 0.17 0.21 0.23 0.21 0.18 0.18 0.21 0.24 0.24 0.30
0.07 0.09 0.15 0.18 0.25 0.27 0.36 0.32 0.30 0.28 0.35 0.29 0.29 0.26 0.29 0.27 0.42 0.49 0.46 0.45 0.35 0.26 0.18 0.15 0.14 0.13 0.17 0.20 0.20 0.17 0.16 0.14 0.14 0.14 0.15 0.18 0.16 0.17 0.18 0.17 0.17 0.12 0.10 0.12 0.15 0.17 0.22 0.27 0.29 0.28 0.30 0.29 0.27 0.27
0.12 0.11 0.12 0.12 0.16 0.15 0.22 0.29 0.38 0.36 0.32 0.29 0.32 0.30 0.26 0.35 0.60 0.55 0.51 0.36 0.29 0.23 0.21 0.20 0.24 0.18 0.16 0.19 0.13 0.14 0.17 0.22 0.28 0.29 0.30 0.39 0.36 0.28 0.16 0.13 0.13 0.13 0.13 0.12 0.11 0.16 0.20 0.24 0.24 0.27 0.35 0.37 0.35 0.40
0.09 0.07 0.08 0.08 0.09 0.16 0.31 0.22 0.25 0.18 0.11 0.13 0.13 0.16 0.20 0.43 0.64 0.52 0.46 0.36 0.34 0.37 0.39 0.31 0.29 0.23 0.22 0.18 0.18 0.18 0.25 0.24 0.29 0.35 0.38 0.35 0.32 0.27 0.18 0.15 0.14 0.15 0.14 0.14 0.13 0.12 0.11 0.12 0.14 0.18 0.21 0.27 0.36 0.44
0.11 0.13 0.15 0.13 0.20 0.30 0.26 0.16 0.18 0.16 0.17 0.17 0.17 0.18 0.29 0.41 0.46 0.34 0.34 0.46 0.33 0.27 0.25 0.24 0.24 0.25 0.25 0.26 0.29 0.29 0.35 0.30 0.29 0.31 0.31 0.33 0.29 0.22 0.17 0.14 0.13 0.13 0.13 0.13 0.15 0.18 0.19 0.16 0.21 0.25 0.23 0.25 0.30 0.31
0.16 0.24 0.25 0.23 0.31 0.29 0.30 0.38 0.31 0.31 0.26 0.24 0.24 0.19 0.30 0.28 0.27 0.31 0.29 0.32 0.33 0.30 0.31 0.32 0.34 0.37 0.40 0.42 0.39 0.39 0.37 0.32 0.26 0.24 0.22 0.22 0.21 0.18 0.14 0.11 0.11 0.13 0.14 0.13 0.15 0.17 0.17 0.20 0.25 0.26 0.29 0.26 0.26 0.25
0.14 0.16 0.20 0.23 0.24 0.31 0.35 0.40 0.35 0.32 0.31 0.27 0.29 0.31 0.32 0.31 0.34 0.42 0.32 0.35 0.56 0.57 0.46 0.45 0.47 0.47 0.49 0.42 0.34 0.33 0.31 0.27 0.22 0.18 0.17 0.15 0.12 0.09 0.08 0.09 0.09 0.10 0.11 0.11 0.15 0.16 0.16 0.14 0.16 0.17 0.16 0.16 0.16 0.14